Location: Conflandey
(47.7287°N, 6.0456°E)
Time: 03:06:12
(UTC+00:00)

Cosmos 1758 Rocket - Pass Details

Date: 24 October 2021
Orbit: 602 x 635 km, 82.5° (Epoch: 28 November)

Event Time Altitude Azimuth Distance (km) Brightness Sun altitude
Rises 18:13:50 0° 352° (N) 2,867 7.1 -17.9°
Reaches altitude 10° 18:16:04 10° 355° (N) 1,960 6.2 -18.3°
Maximum altitude 18:20:23 70° 79° (E) 647 3.4 -19.0°
Enters shadow 18:24:09 13° 163° (SSE) 1,737 5.6 -19.6°
